,,,PA_Meas_PMT16A,,PR_Meas_QMR101_102,,RH_Meas_QMH101,,SR_Meas_QMS101,,TA_Meas_QMH101,,GenWind,,GenWind,
date,time,status,PA,status,PR,status,RH,status,SR,status,TA,status,DirAvg,status,SpdAvg,
2014-06-28, 00:00:05,VALID,1011.89,VALID,0,VALID,104,VALID,0,VALID,25.4111,VALID,168,VALID,0,
2014-06-28, 00:01:05,VALID,1011.88,VALID,0,VALID,104,VALID,0,VALID,25.4111,VALID,168,VALID,0,
2014-06-28, 00:02:05,VALID,1011.89,VALID,0,VALID,104,VALID,0,VALID,25.4306,VALID,168,VALID,0,
2014-06-28, 00:03:05,VALID,1011.89,VALID,0,VALID,104,VALID,0,VALID,25.4501,VALID,168,VALID,0,
2014-06-28, 00:04:05,VALID,1011.89,VALID,0,VALID,104,VALID,0,VALID,25.4306,VALID,168,VALID,0,
2014-06-28, 00:05:05,VALID,1011.85,VALID,0,VALID,99.8059,VALID,0,VALID,25.3916,VALID,151,VALID,2.28906,
2014-06-28, 00:06:05,VALID,1011.81,VALID,0,VALID,93.6214,VALID,0,VALID,25.4287,VALID,181,VALID,1.42109,
2014-06-28, 00:07:05,VALID,1011.79,VALID,0,VALID,94.6966,VALID,0,VALID,25.4501,VALID,183,VALID,0.565234,
2014-06-28, 00:08:05,VALID,1011.77,VALID,0,VALID,93.4307,VALID,0,VALID,25.3916,VALID,157,VALID,1.32266,
2014-06-28, 00:09:05,VALID,1011.77,VALID,0,VALID,90.9752,VALID,0,VALID,25.3721,VALID,170,VALID,0.783984,
2014-06-28, 00:10:05,VALID,1011.74,VALID,0,VALID,91.3336,VALID,0,VALID,25.3526,VALID,170,VALID,0,
2014-06-28, 00:11:05,VALID,1011.78,VALID,0,VALID,90.5329,VALID,0,VALID,25.3702,VALID,152,VALID,0.835547,
2014-06-28, 00:12:05,VALID,1011.72,VALID,0,VALID,89.6636,VALID,0,VALID,25.3293,VALID,152,VALID,1.03633,
2014-06-28, 00:13:05,VALID,1011.7,VALID,0,VALID,90.2508,VALID,0,VALID,25.3507,VALID,152,VALID,0.814844,
2014-06-28, 00:14:05,VALID,1011.67,VALID,0,VALID,90.3194,VALID,0.112112,VALID,25.3117,VALID,152,VALID,0.810547,
2014-06-28, 00:15:05,VALID,1011.69,VALID,0,VALID,91.0057,VALID,0.112112,VALID,25.2727,VALID,152,VALID,0.790625,
2014-06-28, 00:16:05,VALID,1011.65,VALID,0,VALID,89.595,VALID,0,VALID,25.2532,VALID,152,VALID,1.16719,
2014-06-28, 00:17:05,VALID,1011.66,VALID,0,VALID,90.2355,VALID,0.112112,VALID,25.2513,VALID,152,VALID,0.420703,
2014-06-28, 00:18:05,VALID,1011.63,VALID,0,VALID,91.4252,VALID,0,VALID,25.2532,VALID,152,VALID,0,
2014-06-28, 00:19:05,VALID,1011.61,VALID,0,VALID,92.5004,VALID,0.112112,VALID,25.2123,VALID,152,VALID,0,
2014-06-28, 00:20:05,VALID,1011.61,VALID,0,VALID,93.8807,VALID,0,VALID,25.2142,VALID,152,VALID,0,
2014-06-28, 00:21:05,VALID,1011.55,VALID,0,VALID,94.6127,VALID,0.112112,VALID,25.1733,VALID,152,VALID,0,
2014-06-28, 00:22:05,VALID,1011.54,VALID,0,VALID,95.6346,VALID,0.112112,VALID,25.1538,VALID,152,VALID,0,
2014-06-28, 00:23:05,VALID,1011.52,VALID,0,VALID,94.6356,VALID,0,VALID,25.1343,VALID,152,VALID,0,
2014-06-28, 00:24:05,VALID,1011.5,VALID,0,VALID,94.2467,VALID,0,VALID,25.1362,VALID,152,VALID,0,
2014-06-28, 00:25:05,VALID,1011.47,VALID,0,VALID,92.9732,VALID,0,VALID,25.1148,VALID,152,VALID,0,
2014-06-28, 00:26:05,VALID,1011.47,VALID,0,VALID,93.7053,VALID,0.112112,VALID,25.1343,VALID,152,VALID,0,
2014-06-28, 00:27:05,VALID,1011.46,VALID,0,VALID,94.0713,VALID,0.112112,VALID,25.0954,VALID,152,VALID,0,
2014-06-28, 00:28:05,VALID,1011.41,VALID,0,VALID,95.0931,VALID,0.112112,VALID,25.0954,VALID,152,VALID,0,
2014-06-28, 00:29:05,VALID,1011.37,VALID,0,VALID,93.7815,VALID,0.112112,VALID,25.0545,VALID,152,VALID,0,
2014-06-28, 00:30:05,VALID,1011.34,VALID,0,VALID,94.7042,VALID,0.112112,VALID,25.0759,VALID,152,VALID,0,
2014-06-28, 00:31:05,VALID,1011.34,VALID,0,VALID,93.8349,VALID,0,VALID,25.0369,VALID,152,VALID,0,
2014-06-28, 00:32:05,VALID,1011.34,VALID,0,VALID,92.9122,VALID,0,VALID,25.0583,VALID,152,VALID,0,
2014-06-28, 00:33:05,VALID,1011.29,VALID,0,VALID,94.1094,VALID,0.112112,VALID,25.0174,VALID,152,VALID,0,
2014-06-28, 00:34:05,VALID,1011.29,VALID,0,VALID,92.4928,VALID,0.112112,VALID,24.9784,VALID,152,VALID,0,
2014-06-28, 00:35:05,VALID,1011.24,VALID,0,VALID,93.3545,VALID,0.112112,VALID,24.9979,VALID,152,VALID,0,
2014-06-28, 00:36:05,VALID,1011.23,VALID,0,VALID,94.2314,VALID,0.112112,VALID,24.9979,VALID,152,VALID,0,
2014-06-28, 00:37:05,VALID,1011.23,VALID,0,VALID,93.6748,VALID,0.112112,VALID,24.9589,VALID,152,VALID,0,
2014-06-28, 00:38:05,VALID,1011.19,VALID,0,VALID,92.5461,VALID,0.112112,VALID,24.9589,VALID,152,VALID,0,
2014-06-28, 00:39:05,VALID,1011.17,VALID,0,VALID,92.6605,VALID,0.112112,VALID,24.9375,VALID,152,VALID,0,
2014-06-28, 00:40:05,VALID,1011.17,VALID,0,VALID,93.8959,VALID,0.112112,VALID,24.9394,VALID,152,VALID,0,
2014-06-28, 00:41:05,VALID,1011.16,VALID,0,VALID,94.9483,VALID,0.112112,VALID,24.9394,VALID,152,VALID,0,
2014-06-28, 00:42:05,VALID,1011.14,VALID,0,VALID,93.8273,VALID,0,VALID,24.9004,VALID,152,VALID,0,
2014-06-28, 00:43:05,VALID,1011.11,VALID,0,VALID,93.9569,VALID,0.112112,VALID,24.9199,VALID,152,VALID,0,
2014-06-28, 00:44:05,VALID,1011.07,VALID,0,VALID,94.9483,VALID,0.112112,VALID,24.9004,VALID,152,VALID,0,
2014-06-28, 00:45:05,VALID,1011,VALID,0,VALID,95.6193,VALID,0.112112,VALID,24.8809,VALID,152,VALID,0,
2014-06-28, 00:46:05,VALID,1010.99,VALID,0,VALID,96.359,VALID,0.112112,VALID,24.8615,VALID,152,VALID,0,
2014-06-28, 00:47:05,VALID,1010.96,VALID,0,VALID,95.2075,VALID,0.112112,VALID,24.8615,VALID,152,VALID,0,
2014-06-28, 00:48:05,VALID,1010.94,VALID,0,VALID,95.688,VALID,0.112112,VALID,24.842,VALID,152,VALID,0,
2014-06-28, 00:49:05,VALID,1010.9,VALID,0,VALID,95.3753,VALID,0.112112,VALID,24.842,VALID,152,VALID,0,
2014-06-28, 00:50:05,VALID,1010.87,VALID,0,VALID,95.8862,VALID,0.112112,VALID,24.842,VALID,152,VALID,0,
2014-06-28, 00:51:05,VALID,1010.84,VALID,0,VALID,96.5344,VALID,0,VALID,24.842,VALID,152,VALID,0,
2014-06-28, 00:52:05,VALID,1010.83,VALID,0,VALID,95.7337,VALID,0.112112,VALID,24.8225,VALID,152,VALID,0,
2014-06-28, 00:53:05,VALID,1010.82,VALID,0,VALID,96.992,VALID,0.112112,VALID,24.842,VALID,152,VALID,0,
2014-06-28, 00:54:05,VALID,1010.8,VALID,0,VALID,96.5192,VALID,0,VALID,24.8049,VALID,152,VALID,0,
2014-06-28, 00:55:05,VALID,1010.79,VALID,0,VALID,97.4342,VALID,0,VALID,24.8049,VALID,152,VALID,0,
2014-06-28, 00:56:05,VALID,1010.81,VALID,0,VALID,98.5171,VALID,0.112112,VALID,24.8049,VALID,152,VALID,0,
2014-06-28, 00:57:05,VALID,1010.82,VALID,0,VALID,99.5618,VALID,0.112112,VALID,24.764,VALID,152,VALID,0,
2014-06-28, 00:58:05,VALID,1010.83,VALID,0,VALID,99.7754,VALID,0.112112,VALID,24.7445,VALID,152,VALID,0,
2014-06-28, 00:59:05,VALID,1010.86,VALID,0,VALID,100.668,VALID,0.112112,VALID,24.7055,VALID,152,VALID,0,
2014-06-28, 01:00:05,VALID,1010.83,VALID,0,VALID,102.017,VALID,0,VALID,24.7055,VALID,152,VALID,0,
2014-06-28, 01:01:05,VALID,1010.82,VALID,0,VALID,103.375,VALID,0.112112,VALID,24.686,VALID,152,VALID,0,
2014-06-28, 01:02:05,VALID,1010.83,VALID,0,VALID,104,VALID,0.112112,VALID,24.6666,VALID,152,VALID,0,
2014-06-28, 01:03:05,VALID,1010.81,VALID,0,VALID,104,VALID,0.112112,VALID,24.6684,VALID,152,VALID,0,
2014-06-28, 01:04:05,VALID,1010.84,VALID,0,VALID,104,VALID,0.112112,VALID,24.6276,VALID,152,VALID,0,
2014-06-28, 01:05:05,VALID,1010.86,VALID,0,VALID,104,VALID,0.112112,VALID,24.6081,VALID,152,VALID,0,
2014-06-28, 01:06:05,VALID,1010.88,VALID,0,VALID,104,VALID,0.112112,VALID,24.6081,VALID,152,VALID,0,
2014-06-28, 01:07:05,VALID,1010.91,VALID,0,VALID,104,VALID,0.112112,VALID,24.5886,VALID,152,VALID,0,
2014-06-28, 01:08:05,VALID,1010.93,VALID,0,VALID,104,VALID,0.112112,VALID,24.5886,VALID,152,VALID,0,
2014-06-28, 01:09:05,VALID,1010.91,VALID,0,VALID,104,VALID,0.112112,VALID,24.6081,VALID,152,VALID,0,
2014-06-28, 01:10:05,VALID,1010.92,VALID,0,VALID,104,VALID,0.112112,VALID,24.5886,VALID,152,VALID,0,
2014-06-28, 01:11:05,VALID,1010.95,VALID,0,VALID,104,VALID,0,VALID,24.6099,VALID,152,VALID,0,
2014-06-28, 01:12:05,VALID,1010.95,VALID,0,VALID,104,VALID,0,VALID,24.6313,VALID,152,VALID,0,
2014-06-28, 01:13:05,VALID,1010.96,VALID,0,VALID,104,VALID,0,VALID,24.571,VALID,152,VALID,0,
2014-06-28, 01:14:05,VALID,1010.97,VALID,0,VALID,104,VALID,0,VALID,24.5923,VALID,166,VALID,1.51719,
2014-06-28, 01:15:05,VALID,1010.99,VALID,0,VALID,104,VALID,0,VALID,24.5905,VALID,152,VALID,0.790625,
2014-06-28, 01:16:05,VALID,1011.01,VALID,0,VALID,104,VALID,0,VALID,24.6118,VALID,151,VALID,0.975391,
2014-06-28, 01:17:05,VALID,1011.04,VALID,0,VALID,104,VALID,0,VALID,24.6118,VALID,151,VALID,0.434766,
2014-06-28, 01:18:05,VALID,1011.06,VALID,0,VALID,104,VALID,0,VALID,24.5905,VALID,151,VALID,0.176563,
2014-06-28, 01:19:05,VALID,1011.08,VALID,0,VALID,104,VALID,0,VALID,24.5905,VALID,151,VALID,0.573828,
2014-06-28, 01:20:05,VALID,1011.07,VALID,0,VALID,104,VALID,0,VALID,24.6118,VALID,151,VALID,0.619141,
2014-06-28, 01:21:05,VALID,1011.1,VALID,0,VALID,104,VALID,0,VALID,24.6099,VALID,151,VALID,0.753516,
2014-06-28, 01:22:05,VALID,1011.1,VALID,0,VALID,104,VALID,0,VALID,24.6313,VALID,151,VALID,0.828906,
2014-06-28, 01:23:05,VALID,1011.05,VALID,0,VALID,104,VALID,0,VALID,24.6099,VALID,151,VALID,0.435547,
2014-06-28, 01:24:05,VALID,1011.09,VALID,0,VALID,104,VALID,0,VALID,24.6294,VALID,152,VALID,1.02891,
2014-06-28, 01:25:05,VALID,1011.1,VALID,0,VALID,104,VALID,0,VALID,24.6508,VALID,152,VALID,1.30508,
2014-06-28, 01:26:05,VALID,1011.12,VALID,0,VALID,104,VALID,0,VALID,24.6489,VALID,170,VALID,0.743359,
2014-06-28, 01:27:05,VALID,1011.14,VALID,0,VALID,104,VALID,0,VALID,24.6703,VALID,185,VALID,0.953516,
2014-06-28, 01:28:05,VALID,1011.12,VALID,0,VALID,104,VALID,0,VALID,24.6489,VALID,178,VALID,1.29805,
2014-06-28, 01:29:05,VALID,1011.09,VALID,0,VALID,104,VALID,0,VALID,24.6489,VALID,178,VALID,0.95,
2014-06-28, 01:30:05,VALID,1011.08,VALID,0,VALID,104,VALID,0,VALID,24.6489,VALID,190,VALID,1.29219,
2014-06-28, 01:31:05,VALID,1011.08,VALID,0,VALID,104,VALID,0,VALID,24.6471,VALID,190,VALID,0.979297,
2014-06-28, 01:32:05,VALID,1011.1,VALID,0,VALID,104,VALID,0,VALID,24.6879,VALID,175,VALID,1.19766,
2014-06-28, 01:33:05,VALID,1011.07,VALID,0,VALID,104,VALID,0,VALID,24.6898,VALID,175,VALID,0.760156,
2014-06-28, 01:34:05,VALID,1011.08,VALID,0,VALID,104,VALID,0,VALID,24.7093,VALID,175,VALID,0.795313,
2014-06-28, 01:35:05,VALID,1011.05,VALID,0,VALID,104,VALID,0,VALID,24.7269,VALID,175,VALID,0.461719,
2014-06-28, 01:36:05,VALID,1011.03,VALID,0,VALID,104,VALID,0,VALID,24.7269,VALID,151,VALID,1.49102,
2014-06-28, 01:37:05,VALID,1011.01,VALID,0,VALID,104,VALID,0,VALID,24.7269,VALID,151,VALID,0.842188,
2014-06-28, 01:38:05,VALID,1011,VALID,0,VALID,104,VALID,0,VALID,24.7678,VALID,151,VALID,0.627344,
2014-06-28, 01:39:05,VALID,1010.99,VALID,0,VALID,104,VALID,0,VALID,24.7659,VALID,151,VALID,0.669922,
2014-06-28, 01:40:05,VALID,1010.97,VALID,0,VALID,104,VALID,0,VALID,24.7659,VALID,191,VALID,1.00586,
2014-06-28, 01:41:05,VALID,1010.96,VALID,0,VALID,104,VALID,0,VALID,24.7854,VALID,166,VALID,0.862891,
2014-06-28, 01:42:05,VALID,1010.92,VALID,0,VALID,104,VALID,0,VALID,24.8244,VALID,179,VALID,1.03359,
2014-06-28, 01:43:05,VALID,1010.87,VALID,0,VALID,104,VALID,0,VALID,24.8438,VALID,178,VALID,0.760938,
2014-06-28, 01:44:05,VALID,1010.89,VALID,0,VALID,104,VALID,0,VALID,24.8438,VALID,178,VALID,0.442187,
2014-06-28, 01:45:05,VALID,1010.87,VALID,0,VALID,104,VALID,0,VALID,24.8633,VALID,178,VALID,0.408594,
2014-06-28, 01:46:05,VALID,1010.86,VALID,0,VALID,104,VALID,0,VALID,24.9042,VALID,178,VALID,0,
2014-06-28, 01:47:05,VALID,1010.86,VALID,0,VALID,104,VALID,0,VALID,24.9237,VALID,178,VALID,0.758203,
2014-06-28, 01:48:05,VALID,1010.81,VALID,0,VALID,104,VALID,0,VALID,24.9218,VALID,182,VALID,0.933203,
2014-06-28, 01:49:05,VALID,1010.78,VALID,0,VALID,104,VALID,0,VALID,24.9608,VALID,193,VALID,1.16172,
2014-06-28, 01:50:05,VALID,1010.75,VALID,0,VALID,101.819,VALID,0,VALID,25.0407,VALID,182,VALID,0.820703,
2014-06-28, 01:51:05,VALID,1010.67,VALID,0,VALID,98.9823,VALID,0,VALID,25.0602,VALID,182,VALID,0.904688,
2014-06-28, 01:52:05,VALID,1010.64,VALID,0,VALID,98.4103,VALID,0,VALID,25.0797,VALID,182,VALID,0.484766,
2014-06-28, 01:53:05,VALID,1010.59,VALID,0,VALID,98.1892,VALID,0,VALID,25.0797,VALID,182,VALID,0.470703,
2014-06-28, 01:54:05,VALID,1010.57,VALID,0,VALID,98.1358,VALID,0,VALID,25.0388,VALID,182,VALID,0.305078,
2014-06-28, 01:55:05,VALID,1010.56,VALID,0,VALID,96.9462,VALID,0,VALID,25.0388,VALID,182,VALID,0.878125,
2014-06-28, 01:56:05,VALID,1010.55,VALID,0,VALID,95.7947,VALID,0,VALID,25.0583,VALID,182,VALID,0.8625,
2014-06-28, 01:57:05,VALID,1010.54,VALID,0,VALID,95.7947,VALID,0,VALID,25.0583,VALID,182,VALID,0.707031,
2014-06-28, 01:58:05,VALID,1010.49,VALID,0,VALID,95.3295,VALID,0,VALID,25.0797,VALID,182,VALID,0.370313,
2014-06-28, 01:59:05,VALID,1010.46,VALID,0,VALID,96.0616,VALID,0,VALID,25.0583,VALID,182,VALID,0,
2014-06-28, 02:00:05,VALID,1010.46,VALID,0,VALID,96.3209,VALID,0,VALID,25.0388,VALID,182,VALID,0.682031,
2014-06-28, 02:01:05,VALID,1010.46,VALID,0,VALID,95.2304,VALID,0,VALID,25.0388,VALID,153,VALID,1.36602,
2014-06-28, 02:02:05,VALID,1010.46,VALID,0,VALID,95.3524,VALID,0,VALID,25.0407,VALID,143,VALID,0.733203,
2014-06-28, 02:03:05,VALID,1010.48,VALID,0,VALID,94.506,VALID,0,VALID,25.0193,VALID,190,VALID,1.22383,
2014-06-28, 02:04:05,VALID,1010.45,VALID,0,VALID,94.7881,VALID,0,VALID,25.0193,VALID,179,VALID,1.35,
2014-06-28, 02:05:05,VALID,1010.44,VALID,0,VALID,94.3458,VALID,0,VALID,25.0193,VALID,200,VALID,0.684375,
2014-06-28, 02:06:05,VALID,1010.41,VALID,0,VALID,94.4373,VALID,0,VALID,24.9998,VALID,197,VALID,1.55156,
2014-06-28, 02:07:05,VALID,1010.41,VALID,0,VALID,94.7881,VALID,0,VALID,24.9998,VALID,192,VALID,1.69258,
2014-06-28, 02:08:05,VALID,1010.4,VALID,0,VALID,95.4516,VALID,0,VALID,24.9803,VALID,172,VALID,0.977734,
2014-06-28, 02:09:05,VALID,1010.43,VALID,0,VALID,95.688,VALID,0,VALID,24.9608,VALID,193,VALID,1.23828,
2014-06-28, 02:10:05,VALID,1010.42,VALID,0,VALID,96.0845,VALID,0,VALID,24.9413,VALID,164,VALID,1.71055,
2014-06-28, 02:11:05,VALID,1010.45,VALID,0,VALID,96.5725,VALID,0,VALID,24.9218,VALID,191,VALID,1.75234,
2014-06-28, 02:12:05,VALID,1010.44,VALID,0,VALID,94.6585,VALID,0,VALID,24.8633,VALID,185,VALID,3.2332,
2014-06-28, 02:13:05,VALID,1010.42,VALID,0,VALID,95.5507,VALID,0,VALID,24.8438,VALID,168,VALID,1.91641,
2014-06-28, 02:14:05,VALID,1010.38,VALID,0,VALID,95.3753,VALID,0,VALID,24.8049,VALID,174,VALID,2.01914,
2014-06-28, 02:15:05,VALID,1010.36,VALID,0,VALID,96.3666,VALID,0,VALID,24.7854,VALID,172,VALID,1.38047,
2014-06-28, 02:16:05,VALID,1010.32,VALID,0,VALID,95.0321,VALID,0,VALID,24.7269,VALID,148,VALID,2.37773,
2014-06-28, 02:17:05,VALID,1010.33,VALID,0,VALID,95.5202,VALID,0,VALID,24.7074,VALID,153,VALID,1.99883,
2014-06-28, 02:18:05,VALID,1010.31,VALID,0,VALID,96.2828,VALID,0,VALID,24.6684,VALID,167,VALID,1.42109,
2014-06-28, 02:19:05,VALID,1010.28,VALID,0,VALID,97.5791,VALID,0,VALID,24.6294,VALID,195,VALID,0.560547,
2014-06-28, 02:20:05,VALID,1010.29,VALID,0,VALID,98.5247,VALID,0,VALID,24.6099,VALID,171,VALID,0.777734,
2014-06-28, 02:21:05,VALID,1010.29,VALID,0,VALID,100.05,VALID,0,VALID,24.5691,VALID,171,VALID,0.596875,
2014-06-28, 02:22:05,VALID,1010.27,VALID,0,VALID,100.637,VALID,0,VALID,24.571,VALID,171,VALID,0.982422,
2014-06-28, 02:23:05,VALID,1010.29,VALID,0,VALID,101.88,VALID,0,VALID,24.532,VALID,171,VALID,0.664063,
2014-06-28, 02:24:05,VALID,1010.29,VALID,0,VALID,102.048,VALID,0,VALID,24.5125,VALID,171,VALID,0.602734,
2014-06-28, 02:25:05,VALID,1010.3,VALID,0,VALID,103.283,VALID,0,VALID,24.5125,VALID,171,VALID,0.864453,
2014-06-28, 02:26:05,VALID,1010.32,VALID,0,VALID,103.71,VALID,0,VALID,24.4735,VALID,171,VALID,0.628906,
2014-06-28, 02:27:05,VALID,1010.32,VALID,0,VALID,103.413,VALID,0,VALID,24.4345,VALID,171,VALID,0.858594,
2014-06-28, 02:28:05,VALID,1010.35,VALID,0,VALID,104,VALID,0,VALID,24.4345,VALID,171,VALID,1.01016,
2014-06-28, 02:29:05,VALID,1010.35,VALID,0,VALID,104,VALID,0,VALID,24.3956,VALID,171,VALID,0.715234,
2014-06-28, 02:30:05,VALID,1010.36,VALID,0,VALID,104,VALID,0,VALID,24.3956,VALID,171,VALID,0.989453,
2014-06-28, 02:31:05,VALID,1010.39,VALID,0,VALID,104,VALID,0,VALID,24.3761,VALID,140,VALID,0.831641,
2014-06-28, 02:32:05,VALID,1010.43,VALID,0,VALID,104,VALID,0,VALID,24.3566,VALID,140,VALID,1.29766,
2014-06-28, 02:33:05,VALID,1010.4,VALID,0,VALID,104,VALID,0,VALID,24.3779,VALID,140,VALID,1.26133,
2014-06-28, 02:34:05,VALID,1010.42,VALID,0,VALID,104,VALID,0,VALID,24.2963,VALID,148,VALID,1.28164,
2014-06-28, 02:35:05,VALID,1010.39,VALID,0,VALID,104,VALID,0,VALID,24.2981,VALID,144,VALID,1.32187,
2014-06-28, 02:36:05,VALID,1010.42,VALID,0,VALID,104,VALID,0,VALID,24.2786,VALID,132,VALID,1.04258,
2014-06-28, 02:37:05,VALID,1010.41,VALID,0,VALID,104,VALID,0,VALID,24.2591,VALID,139,VALID,1.2875,
2014-06-28, 02:38:05,VALID,1010.38,VALID,0,VALID,104,VALID,0,VALID,24.2591,VALID,139,VALID,0.468359,
2014-06-28, 02:39:05,VALID,1010.37,VALID,0,VALID,104,VALID,0,VALID,24.2183,VALID,139,VALID,1.09063,
2014-06-28, 02:40:05,VALID,1010.39,VALID,0,VALID,104,VALID,0,VALID,24.1793,VALID,139,VALID,1.05898,
2014-06-28, 02:41:04,VALID,1010.37,VALID,0,VALID,104,VALID,0,VALID,24.2007,VALID,139,VALID,1.02148,
2014-06-28, 02:42:04,VALID,1010.34,VALID,0,VALID,104,VALID,0,VALID,24.1812,VALID,139,VALID,0.960156,
2014-06-28, 02:43:04,VALID,1010.35,VALID,0,VALID,104,VALID,0,VALID,24.1812,VALID,139,VALID,0.782422,
2014-06-28, 02:44:04,VALID,1010.33,VALID,0,VALID,104,VALID,0,VALID,24.1422,VALID,139,VALID,0.314063,
2014-06-28, 02:45:04,VALID,1010.31,VALID,0,VALID,104,VALID,0,VALID,24.1422,VALID,139,VALID,0.869531,
2014-06-28, 02:46:04,VALID,1010.33,VALID,0,VALID,104,VALID,0,VALID,24.144,VALID,139,VALID,0.705469,
2014-06-28, 02:47:04,VALID,1010.32,VALID,0,VALID,104,VALID,0,VALID,24.1227,VALID,139,VALID,1.06719,
2014-06-28, 02:48:04,VALID,1010.35,VALID,0,VALID,104,VALID,0,VALID,24.1227,VALID,139,VALID,0.757422,
2014-06-28, 02:49:04,VALID,1010.32,VALID,0,VALID,104,VALID,0,VALID,24.1032,VALID,139,VALID,0.635938,
2014-06-28, 02:50:04,VALID,1010.35,VALID,0,VALID,104,VALID,0,VALID,24.0837,VALID,139,VALID,0.453125,
2014-06-28, 02:51:04,VALID,1010.37,VALID,0,VALID,104,VALID,0,VALID,24.1032,VALID,139,VALID,0.724219,
2014-06-28, 02:52:04,VALID,1010.38,VALID,0,VALID,104,VALID,0,VALID,24.1032,VALID,139,VALID,1.02617,
2014-06-28, 02:53:04,VALID,1010.35,VALID,0,VALID,104,VALID,0,VALID,24.1032,VALID,139,VALID,0.762109,
2014-06-28, 02:54:04,VALID,1010.36,VALID,0,VALID,104,VALID,0,VALID,24.1032,VALID,139,VALID,0.767187,
2014-06-28, 02:55:04,VALID,1010.37,VALID,0,VALID,104,VALID,0,VALID,24.1032,VALID,139,VALID,0.776563,
2014-06-28, 02:56:04,VALID,1010.37,VALID,0,VALID,104,VALID,0,VALID,24.0837,VALID,139,VALID,0.441797,
2014-06-28, 02:57:04,VALID,1010.38,VALID,0,VALID,104,VALID,0,VALID,24.0837,VALID,139,VALID,0.902344,
2014-06-28, 02:58:04,VALID,1010.4,VALID,0,VALID,104,VALID,0,VALID,24.0837,VALID,139,VALID,0.597266,
2014-06-28, 02:59:04,VALID,1010.42,VALID,0,VALID,104,VALID,0,VALID,24.0837,VALID,139,VALID,0.503516,
2014-06-28, 03:00:04,VALID,1010.44,VALID,0,VALID,104,VALID,0,VALID,24.1032,VALID,139,VALID,1.38789,
2014-06-28, 03:01:04,VALID,1010.45,VALID,0,VALID,104,VALID,0,VALID,24.1032,VALID,139,VALID,0.634766,
2014-06-28, 03:02:04,VALID,1010.49,VALID,0,VALID,104,VALID,0,VALID,24.0837,VALID,140,VALID,1.05547,
2014-06-28, 03:03:04,VALID,1010.49,VALID,0,VALID,104,VALID,0,VALID,24.1032,VALID,140,VALID,0.450391,
2014-06-28, 03:04:04,VALID,1010.51,VALID,0,VALID,104,VALID,0,VALID,24.1032,VALID,140,VALID,0.13125,
2014-06-28, 03:05:04,VALID,1010.5,VALID,0,VALID,104,VALID,0,VALID,24.0837,VALID,143,VALID,0.828516,
2014-06-28, 03:06:04,VALID,1010.51,VALID,0,VALID,104,VALID,0,VALID,24.1032,VALID,179,VALID,0.885547,
2014-06-28, 03:07:04,VALID,1010.49,VALID,0,VALID,104,VALID,0,VALID,24.0837,VALID,179,VALID,1.0375,
2014-06-28, 03:08:04,VALID,1010.51,VALID,0,VALID,104,VALID,0,VALID,24.0837,VALID,179,VALID,0.674219,
2014-06-28, 03:09:04,VALID,1010.51,VALID,0,VALID,104,VALID,0,VALID,24.0837,VALID,179,VALID,0.739844,
2014-06-28, 03:10:04,VALID,1010.54,VALID,0,VALID,104,VALID,0,VALID,24.0837,VALID,179,VALID,0.773047,
2014-06-28, 03:11:04,VALID,1010.55,VALID,0,VALID,104,VALID,0,VALID,24.1032,VALID,179,VALID,0.577344,
2014-06-28, 03:12:04,VALID,1010.55,VALID,0,VALID,104,VALID,0,VALID,24.0837,VALID,179,VALID,0.792188,
2014-06-28, 03:13:04,VALID,1010.55,VALID,0,VALID,104,VALID,0,VALID,24.0643,VALID,179,VALID,0.520703,
2014-06-28, 03:14:04,VALID,1010.56,VALID,0,VALID,104,VALID,0,VALID,24.0837,VALID,179,VALID,0.566797,
2014-06-28, 03:15:04,VALID,1010.56,VALID,0,VALID,104,VALID,0,VALID,24.0837,VALID,179,VALID,0.392188,
2014-06-28, 03:16:04,VALID,1010.59,VALID,0,VALID,104,VALID,0,VALID,24.1032,VALID,179,VALID,0.403906,
2014-06-28, 03:17:04,VALID,1010.6,VALID,0,VALID,104,VALID,0,VALID,24.1032,VALID,179,VALID,0.29375,
2014-06-28, 03:18:04,VALID,1010.59,VALID,0,VALID,104,VALID,0,VALID,24.1032,VALID,179,VALID,0.164063,
2014-06-28, 03:19:04,VALID,1010.63,VALID,0,VALID,104,VALID,0,VALID,24.1032,VALID,179,VALID,0.601172,
2014-06-28, 03:20:04,VALID,1010.63,VALID,0,VALID,104,VALID,0,VALID,24.1032,VALID,179,VALID,1.02031,
2014-06-28, 03:21:04,VALID,1010.66,VALID,0,VALID,104,VALID,0,VALID,24.1032,VALID,179,VALID,0.255859,
2014-06-28, 03:22:04,VALID,1010.67,VALID,0,VALID,104,VALID,0,VALID,24.1032,VALID,179,VALID,0.0660156,
2014-06-28, 03:23:04,VALID,1010.68,VALID,0,VALID,104,VALID,0,VALID,24.0837,VALID,179,VALID,0.189453,
2014-06-28, 03:24:04,VALID,1010.69,VALID,0,VALID,104,VALID,0,VALID,24.0837,VALID,179,VALID,0.210156,
2014-06-28, 03:25:04,VALID,1010.67,VALID,0,VALID,104,VALID,0,VALID,24.1051,VALID,179,VALID,0.324609,
2014-06-28, 03:26:04,VALID,1010.68,VALID,0,VALID,104,VALID,0,VALID,24.0643,VALID,179,VALID,0.146484,
2014-06-28, 03:27:04,VALID,1010.7,VALID,0,VALID,104,VALID,0,VALID,24.0643,VALID,179,VALID,0,
2014-06-28, 03:28:04,VALID,1010.72,VALID,0,VALID,104,VALID,0,VALID,24.0643,VALID,179,VALID,0.0980469,
2014-06-28, 03:29:04,VALID,1010.72,VALID,0,VALID,104,VALID,0,VALID,24.0448,VALID,179,VALID,0,
2014-06-28, 03:30:04,VALID,1010.74,VALID,0,VALID,104,VALID,0,VALID,24.0253,VALID,179,VALID,0,
2014-06-28, 03:31:04,VALID,1010.71,VALID,0,VALID,104,VALID,0,VALID,24.0448,VALID,179,VALID,0,
2014-06-28, 03:32:04,VALID,1010.69,VALID,0,VALID,104,VALID,0,VALID,24.0058,VALID,179,VALID,0,
2014-06-28, 03:33:04,VALID,1010.66,VALID,0,VALID,104,VALID,0,VALID,23.9863,VALID,179,VALID,0,
2014-06-28, 03:34:04,VALID,1010.65,VALID,0,VALID,104,VALID,0,VALID,23.9881,VALID,179,VALID,0,
2014-06-28, 03:35:04,VALID,1010.64,VALID,0,VALID,104,VALID,0,VALID,23.9668,VALID,179,VALID,0,
2014-06-28, 03:36:04,VALID,1010.65,VALID,0,VALID,104,VALID,0,VALID,23.9473,VALID,179,VALID,0,
2014-06-28, 03:37:04,VALID,1010.66,VALID,0,VALID,104,VALID,0,VALID,23.9278,VALID,179,VALID,0,
2014-06-28, 03:38:04,VALID,1010.68,VALID,0,VALID,104,VALID,0,VALID,23.9084,VALID,179,VALID,0,
2014-06-28, 03:39:04,VALID,1010.67,VALID,0,VALID,104,VALID,0,VALID,23.8889,VALID,179,VALID,0,
2014-06-28, 03:40:04,VALID,1010.65,VALID,0,INVALID,109.086,VALID,0,VALID,23.8694,VALID,179,VALID,0,
2014-06-28, 03:41:04,VALID,1010.64,VALID,0,INVALID,109.193,VALID,0,VALID,23.8694,VALID,179,VALID,0,
2014-06-28, 03:42:04,VALID,1010.63,VALID,0,INVALID,109.201,VALID,0,VALID,23.8499,VALID,179,VALID,0.296875,
2014-06-28, 03:43:04,VALID,1010.61,VALID,0,INVALID,109.239,VALID,0,VALID,23.8304,VALID,179,VALID,0.576953,
2014-06-28, 03:44:04,VALID,1010.61,VALID,0,INVALID,109.231,VALID,0,VALID,23.8109,VALID,179,VALID,0.305078,
2014-06-28, 03:45:04,VALID,1010.61,VALID,0,INVALID,109.323,VALID,0,VALID,23.7914,VALID,179,VALID,0,
2014-06-28, 03:46:04,VALID,1010.64,VALID,0,INVALID,109.422,VALID,0,VALID,23.7914,VALID,179,VALID,0,
2014-06-28, 03:47:04,VALID,1010.63,VALID,0,INVALID,109.506,VALID,0,VALID,23.7525,VALID,179,VALID,0,
2014-06-28, 03:48:04,VALID,1010.62,VALID,0,INVALID,109.536,VALID,0,VALID,23.772,VALID,179,VALID,0,
2014-06-28, 03:49:04,VALID,1010.6,VALID,0,INVALID,109.613,VALID,0,VALID,23.7525,VALID,179,VALID,0,
2014-06-28, 03:50:04,VALID,1010.62,VALID,0,INVALID,109.651,VALID,0,VALID,23.7135,VALID,179,VALID,0,
2014-06-28, 03:51:04,VALID,1010.65,VALID,0,INVALID,109.666,VALID,0,VALID,23.7135,VALID,179,VALID,0,